Time,TemperatureF,DewpointF,PressureIn,WindDirection,WindDirectionDegrees,WindSpeedMPH,WindSpeedGustMPH,Humidity,HourlyPrecipIn,Conditions,Clouds,dailyrainin,SoftwareType,DateUTC
2013-05-06 00:00:00,47.0,44.0,-100.00,NE,56,6.0,10.0,88,-99.99,,,-99.99,,2013-05-06 04:00:00,
2013-05-06 00:23:00,47.0,44.0,-100.00,NE,56,6.0,10.0,88,-99.99,,,-99.99,,2013-05-06 04:23:00,
2013-05-06 00:32:00,47.0,44.0,-100.00,NE,56,6.0,10.0,88,-99.99,,,-99.99,,2013-05-06 04:32:00,
2013-05-06 00:43:00,47.0,44.0,-100.00,NE,56,6.0,10.0,88,-99.99,,,-99.99,,2013-05-06 04:43:00,
2013-05-06 00:53:00,47.0,44.0,-100.00,NE,56,6.0,10.0,88,-99.99,,,-99.99,,2013-05-06 04:53:00,
2013-05-06 01:00:00,47.0,44.0,-100.00,NE,39,5.0,8.0,90,-99.99,,,-99.99,,2013-05-06 05:00:00,
2013-05-06 01:22:00,47.0,44.0,-100.00,NE,39,5.0,8.0,90,-99.99,,,-99.99,,2013-05-06 05:22:00,
2013-05-06 01:32:00,47.0,44.0,-100.00,NE,39,5.0,8.0,90,-99.99,,,-99.99,,2013-05-06 05:32:00,
2013-05-06 01:42:00,47.0,44.0,-100.00,NE,39,5.0,8.0,90,-99.99,,,-99.99,,2013-05-06 05:42:00,
2013-05-06 01:52:00,47.0,44.0,-100.00,NE,39,5.0,8.0,90,-99.99,,,-99.99,,2013-05-06 05:52:00,
2013-05-06 02:00:00,47.0,44.0,-100.00,ENE,74,5.0,10.0,90,-99.99,,,-99.99,,2013-05-06 06:00:00,
2013-05-06 02:32:00,47.0,44.0,-100.00,ENE,74,5.0,10.0,90,-99.99,,,-99.99,,2013-05-06 06:32:00,
2013-05-06 02:42:00,47.0,44.0,-100.00,ENE,74,5.0,10.0,90,-99.99,,,-99.99,,2013-05-06 06:42:00,
2013-05-06 02:52:00,47.0,44.0,-100.00,ENE,74,5.0,10.0,90,-99.99,,,-99.99,,2013-05-06 06:52:00,
2013-05-06 03:00:00,47.0,44.0,-100.00,ENE,60,5.0,11.0,90,-99.99,,,-99.99,,2013-05-06 07:00:00,
2013-05-06 03:22:00,47.0,44.0,-100.00,ENE,60,5.0,11.0,90,-99.99,,,-99.99,,2013-05-06 07:22:00,
2013-05-06 03:32:00,47.0,44.0,-100.00,ENE,60,5.0,11.0,90,-99.99,,,-99.99,,2013-05-06 07:32:00,
2013-05-06 03:42:00,47.0,44.0,-100.00,ENE,60,5.0,11.0,90,-99.99,,,-99.99,,2013-05-06 07:42:00,
2013-05-06 03:52:00,47.0,44.0,-100.00,ENE,60,5.0,11.0,90,-99.99,,,-99.99,,2013-05-06 07:52:00,
2013-05-06 04:00:00,47.0,44.0,-100.00,NNE,25,5.0,9.0,89,-99.99,,,-99.99,,2013-05-06 08:00:00,
2013-05-06 04:32:00,47.0,44.0,-100.00,NNE,25,5.0,9.0,89,-99.99,,,-99.99,,2013-05-06 08:32:00,
2013-05-06 04:42:00,47.0,44.0,-100.00,NNE,25,5.0,9.0,89,-99.99,,,-99.99,,2013-05-06 08:42:00,
2013-05-06 04:52:00,47.0,44.0,-100.00,NNE,25,5.0,9.0,89,-99.99,,,-99.99,,2013-05-06 08:52:00,
2013-05-06 05:00:00,47.0,44.0,-100.00,NE,39,3.0,10.0,90,-99.99,,,-99.99,,2013-05-06 09:00:00,
2013-05-06 05:33:00,47.0,44.0,-100.00,NE,39,3.0,10.0,90,-99.99,,,-99.99,,2013-05-06 09:33:00,
2013-05-06 05:43:00,47.0,44.0,-100.00,NE,39,3.0,10.0,90,-99.99,,,-99.99,,2013-05-06 09:43:00,
2013-05-06 05:53:00,47.0,44.0,-100.00,NE,39,3.0,10.0,90,-99.99,,,-99.99,,2013-05-06 09:53:00,
2013-05-06 06:00:00,47.0,45.0,-100.00,NE,37,3.0,12.0,91,-99.99,,,-99.99,,2013-05-06 10:00:00,
2013-05-06 06:22:00,47.0,45.0,-100.00,NE,37,3.0,12.0,91,-99.99,,,-99.99,,2013-05-06 10:22:00,
2013-05-06 06:33:00,47.0,45.0,-100.00,NE,37,3.0,12.0,91,-99.99,,,-99.99,,2013-05-06 10:33:00,
2013-05-06 06:42:00,47.0,45.0,-100.00,NE,37,3.0,12.0,91,-99.99,,,-99.99,,2013-05-06 10:42:00,
2013-05-06 06:52:00,47.0,45.0,-100.00,NE,37,3.0,12.0,91,-99.99,,,-99.99,,2013-05-06 10:52:00,
2013-05-06 07:00:00,48.0,45.0,-100.00,NE,39,3.0,13.0,90,-99.99,,,-99.99,,2013-05-06 11:00:00,
2013-05-06 07:22:00,48.0,45.0,-100.00,NE,39,3.0,13.0,90,-99.99,,,-99.99,,2013-05-06 11:22:00,
2013-05-06 07:32:00,48.0,45.0,-100.00,NE,39,3.0,13.0,90,-99.99,,,-99.99,,2013-05-06 11:32:00,
2013-05-06 07:42:00,48.0,45.0,-100.00,NE,39,3.0,13.0,90,-99.99,,,-99.99,,2013-05-06 11:42:00,
2013-05-06 07:52:00,48.0,45.0,-100.00,NE,39,3.0,13.0,90,-99.99,,,-99.99,,2013-05-06 11:52:00,
2013-05-06 08:00:00,48.0,45.0,-100.00,ENE,60,6.0,14.0,88,-99.99,,,-99.99,,2013-05-06 12:00:00,
2013-05-06 08:22:00,48.0,45.0,-100.00,ENE,60,6.0,14.0,88,-99.99,,,-99.99,,2013-05-06 12:22:00,
2013-05-06 08:32:00,48.0,45.0,-100.00,ENE,60,6.0,14.0,88,-99.99,,,-99.99,,2013-05-06 12:32:00,
2013-05-06 08:42:00,48.0,45.0,-100.00,ENE,60,6.0,14.0,88,-99.99,,,-99.99,,2013-05-06 12:42:00,
2013-05-06 08:52:00,48.0,45.0,-100.00,ENE,60,6.0,14.0,88,-99.99,,,-99.99,,2013-05-06 12:52:00,
2013-05-06 09:00:00,49.0,45.0,-100.00,ENE,75,11.0,14.0,85,-99.99,,,-99.99,,2013-05-06 13:00:00,
2013-05-06 09:21:00,49.0,45.0,-100.00,ENE,75,11.0,14.0,85,-99.99,,,-99.99,,2013-05-06 13:21:00,
2013-05-06 09:32:00,49.0,45.0,-100.00,ENE,75,11.0,14.0,85,-99.99,,,-99.99,,2013-05-06 13:32:00,
2013-05-06 09:42:00,49.0,45.0,-100.00,ENE,75,11.0,14.0,85,-99.99,,,-99.99,,2013-05-06 13:42:00,
2013-05-06 09:52:00,49.0,45.0,-100.00,ENE,75,11.0,14.0,85,-99.99,,,-99.99,,2013-05-06 13:52:00,
2013-05-06 10:00:00,50.0,45.0,-100.00,NE,36,8.0,16.0,83,-99.99,,,-99.99,,2013-05-06 14:00:00,
2013-05-06 10:21:00,50.0,45.0,-100.00,NE,36,8.0,16.0,83,-99.99,,,-99.99,,2013-05-06 14:21:00,
2013-05-06 10:32:00,50.0,45.0,-100.00,NE,36,8.0,16.0,83,-99.99,,,-99.99,,2013-05-06 14:32:00,
2013-05-06 10:42:00,50.0,45.0,-100.00,NE,36,8.0,16.0,83,-99.99,,,-99.99,,2013-05-06 14:42:00,
2013-05-06 10:52:00,50.0,45.0,-100.00,NE,36,8.0,16.0,83,-99.99,,,-99.99,,2013-05-06 14:52:00,
2013-05-06 11:00:00,50.0,45.0,-100.00,NE,35,14.0,17.0,82,-99.99,,,-99.99,,2013-05-06 15:00:00,
2013-05-06 11:22:00,50.0,45.0,-100.00,NE,35,14.0,17.0,82,-99.99,,,-99.99,,2013-05-06 15:22:00,
2013-05-06 11:33:00,50.0,45.0,-100.00,NE,35,14.0,17.0,82,-99.99,,,-99.99,,2013-05-06 15:33:00,
2013-05-06 11:43:00,50.0,45.0,-100.00,NE,35,14.0,17.0,82,-99.99,,,-99.99,,2013-05-06 15:43:00,
2013-05-06 11:53:00,50.0,45.0,-100.00,NE,35,14.0,17.0,82,-99.99,,,-99.99,,2013-05-06 15:53:00,
2013-05-06 12:00:00,52.0,45.0,-100.00,SE,133,9.0,16.0,78,-99.99,,,-99.99,,2013-05-06 16:00:00,
2013-05-06 12:23:00,52.0,45.0,-100.00,SE,133,9.0,16.0,78,-99.99,,,-99.99,,2013-05-06 16:23:00,
2013-05-06 12:33:00,52.0,45.0,-100.00,SE,133,9.0,16.0,78,-99.99,,,-99.99,,2013-05-06 16:33:00,
2013-05-06 12:42:00,52.0,45.0,-100.00,SE,133,9.0,16.0,78,-99.99,,,-99.99,,2013-05-06 16:42:00,
2013-05-06 12:52:00,52.0,45.0,-100.00,SE,133,9.0,16.0,78,-99.99,,,-99.99,,2013-05-06 16:52:00,
2013-05-06 13:00:00,53.0,45.0,-100.00,East,81,6.0,12.0,75,-99.99,,,-99.99,,2013-05-06 17:00:00,
2013-05-06 13:23:00,53.0,45.0,-100.00,East,81,6.0,12.0,75,-99.99,,,-99.99,,2013-05-06 17:23:00,
2013-05-06 13:32:00,53.0,45.0,-100.00,East,81,6.0,12.0,75,-99.99,,,-99.99,,2013-05-06 17:32:00,
2013-05-06 13:42:00,53.0,45.0,-100.00,East,81,6.0,12.0,75,-99.99,,,-99.99,,2013-05-06 17:42:00,
2013-05-06 13:52:00,53.0,45.0,-100.00,East,81,6.0,12.0,75,-99.99,,,-99.99,,2013-05-06 17:52:00,
2013-05-06 14:00:00,55.0,46.0,-100.00,ENE,76,11.0,13.0,69,-99.99,,,-99.99,,2013-05-06 18:00:00,
2013-05-06 14:32:00,55.0,46.0,-100.00,ENE,76,11.0,13.0,69,-99.99,,,-99.99,,2013-05-06 18:32:00,
2013-05-06 14:43:00,55.0,46.0,-100.00,ENE,76,11.0,13.0,69,-99.99,,,-99.99,,2013-05-06 18:43:00,
2013-05-06 14:52:00,55.0,46.0,-100.00,ENE,76,11.0,13.0,69,-99.99,,,-99.99,,2013-05-06 18:52:00,
2013-05-06 15:00:00,54.0,46.0,-100.00,SSE,156,5.0,15.0,76,-99.99,,,-99.99,,2013-05-06 19:00:00,
2013-05-06 15:32:00,54.0,46.0,-100.00,SSE,156,5.0,15.0,76,-99.99,,,-99.99,,2013-05-06 19:32:00,
2013-05-06 15:42:00,54.0,46.0,-100.00,SSE,156,5.0,15.0,76,-99.99,,,-99.99,,2013-05-06 19:42:00,
2013-05-06 15:52:00,54.0,46.0,-100.00,SSE,156,5.0,15.0,76,-99.99,,,-99.99,,2013-05-06 19:52:00,
2013-05-06 16:00:00,54.0,46.0,-100.00,ENE,70,7.0,13.0,73,-99.99,,,-99.99,,2013-05-06 20:00:00,
2013-05-06 16:22:00,54.0,46.0,-100.00,ENE,70,7.0,13.0,73,-99.99,,,-99.99,,2013-05-06 20:22:00,
2013-05-06 16:32:00,54.0,46.0,-100.00,ENE,70,7.0,13.0,73,-99.99,,,-99.99,,2013-05-06 20:32:00,
2013-05-06 16:42:00,54.0,46.0,-100.00,ENE,70,7.0,13.0,73,-99.99,,,-99.99,,2013-05-06 20:42:00,
2013-05-06 16:52:00,54.0,46.0,-100.00,ENE,70,7.0,13.0,73,-99.99,,,-99.99,,2013-05-06 20:52:00,
2013-05-06 17:00:00,54.0,49.0,-100.00,ENE,60,8.0,15.0,82,-99.99,,,-99.99,,2013-05-06 21:00:00,
2013-05-06 17:22:00,54.0,49.0,-100.00,ENE,60,8.0,15.0,82,-99.99,,,-99.99,,2013-05-06 21:22:00,
2013-05-06 17:33:00,54.0,49.0,-100.00,ENE,60,8.0,15.0,82,-99.99,,,-99.99,,2013-05-06 21:33:00,
2013-05-06 17:43:00,54.0,49.0,-100.00,ENE,60,8.0,15.0,82,-99.99,,,-99.99,,2013-05-06 21:43:00,
2013-05-06 17:53:00,54.0,49.0,-100.00,ENE,60,8.0,15.0,82,-99.99,,,-99.99,,2013-05-06 21:53:00,
2013-05-06 18:00:00,52.0,49.0,-100.00,NE,56,5.0,11.0,88,-99.99,,,-99.99,,2013-05-06 22:00:00,
2013-05-06 18:33:00,52.0,49.0,-100.00,NE,56,5.0,11.0,88,-99.99,,,-99.99,,2013-05-06 22:33:00,
2013-05-06 18:45:00,52.0,49.0,-100.00,NE,56,5.0,11.0,88,-99.99,,,-99.99,,2013-05-06 22:45:00,
2013-05-06 18:52:00,52.0,49.0,-100.00,NE,56,5.0,11.0,88,-99.99,,,-99.99,,2013-05-06 22:52:00,
2013-05-06 19:00:00,49.0,47.0,-100.00,East,85,4.0,9.0,94,-99.99,,,-99.99,,2013-05-06 23:00:00,
2013-05-06 19:32:00,49.0,47.0,-100.00,East,85,4.0,9.0,94,-99.99,,,-99.99,,2013-05-06 23:32:00,
2013-05-06 19:42:00,49.0,47.0,-100.00,East,85,4.0,9.0,94,-99.99,,,-99.99,,2013-05-06 23:42:00,
2013-05-06 19:52:00,49.0,47.0,-100.00,East,85,4.0,9.0,94,-99.99,,,-99.99,,2013-05-06 23:52:00,
2013-05-06 20:00:00,49.0,47.0,-100.00,ENE,77,0.0,5.0,95,-99.99,,,-99.99,,2013-05-07 00:00:00,
2013-05-06 20:22:00,49.0,47.0,-100.00,ENE,77,0.0,5.0,95,-99.99,,,-99.99,,2013-05-07 00:22:00,
2013-05-06 20:32:00,49.0,47.0,-100.00,ENE,77,0.0,5.0,95,-99.99,,,-99.99,,2013-05-07 00:32:00,
2013-05-06 20:42:00,49.0,47.0,-100.00,ENE,77,0.0,5.0,95,-99.99,,,-99.99,,2013-05-07 00:42:00,
2013-05-06 20:52:00,49.0,47.0,-100.00,ENE,77,0.0,5.0,95,-99.99,,,-99.99,,2013-05-07 00:52:00,
2013-05-06 21:00:00,48.0,47.0,-100.00,ESE,117,3.0,6.0,96,-99.99,,,-99.99,,2013-05-07 01:00:00,
2013-05-06 21:32:00,48.0,47.0,-100.00,ESE,117,3.0,6.0,96,-99.99,,,-99.99,,2013-05-07 01:32:00,
2013-05-06 21:42:00,48.0,47.0,-100.00,ESE,117,3.0,6.0,96,-99.99,,,-99.99,,2013-05-07 01:42:00,
2013-05-06 21:53:00,48.0,47.0,-100.00,ESE,117,3.0,6.0,96,-99.99,,,-99.99,,2013-05-07 01:53:00,
2013-05-06 22:00:00,48.0,48.0,-100.00,ENE,59,3.0,6.0,97,-99.99,,,-99.99,,2013-05-07 02:00:00,
2013-05-06 22:22:00,48.0,48.0,-100.00,ENE,59,3.0,6.0,97,-99.99,,,-99.99,,2013-05-07 02:22:00,
2013-05-06 22:32:00,48.0,48.0,-100.00,ENE,59,3.0,6.0,97,-99.99,,,-99.99,,2013-05-07 02:32:00,
2013-05-06 22:42:00,48.0,48.0,-100.00,ENE,59,3.0,6.0,97,-99.99,,,-99.99,,2013-05-07 02:42:00,
2013-05-06 22:52:00,48.0,48.0,-100.00,ENE,59,3.0,6.0,97,-99.99,,,-99.99,,2013-05-07 02:52:00,
2013-05-06 23:00:00,48.0,47.0,-100.00,NE,41,0.0,7.0,97,-99.99,,,-99.99,,2013-05-07 03:00:00,
2013-05-06 23:22:00,48.0,47.0,-100.00,NE,41,0.0,7.0,97,-99.99,,,-99.99,,2013-05-07 03:22:00,
2013-05-06 23:32:00,48.0,47.0,-100.00,NE,41,0.0,7.0,97,-99.99,,,-99.99,,2013-05-07 03:32:00,
2013-05-06 23:43:00,48.0,47.0,-100.00,NE,41,0.0,7.0,97,-99.99,,,-99.99,,2013-05-07 03:43:00,
2013-05-06 23:53:00,48.0,47.0,-100.00,NE,41,0.0,7.0,97,-99.99,,,-99.99,,2013-05-07 03:53:00,